Showing default

IONOSFERA-M 02, 61736

Orbit data source: Space-Track

IONOSFERA-M 02, 61736 is a payload satellite owned by VNIIEM (CIS) in SSO that was launched on Mon, 04 Nov 2024 UTC via a SOYUZ-2-1B launch vehicle from the Vostochny Cosmodrome (VOSTO). Payload-class satellites include a variety of spacecraft equipped with specific instruments for various scientific and technological missions. These include communications satellites like Starlink; space stations such as the ISS; scientific satellites like the Hubble; Earth observation satellites from companies like Planet Labs, Umbra, and HawkEye 360; GPS; miniature CubeSats for education and research; and military/defense satellites.

Loading next visibility...
Identifier
61736, 2024-199B
Orbit
SSO
Country
Flag of CISCIS
Related business
Manufacturer
VNIIEM
Mission
Operational Civil Science
Bus & Motor
IONOSFERA-M, Unknown motor
Mass
430 kg wet, 430 kg dry
Launch date (UTC)
2024-11-04 (2 years ago)
Launch vehicle
SOYUZ-2-1B
Launch site
Vostochny Cosmodrome (VOSTO)
Object type
Payload
Rocket body
Debris
Shape & HBR
Box + 1 Ant, 5.0 m
Radar Cross Section
2.359 m², Large (>1 m²)

Expand to show TLE details & history
Last TLE update: 11 hours ago

TLE from 11 hours ago
0 IONOSFERA-M 02
1 61736U 24199B   26264.22224426  .00000030  00000-0  32851-4 0  9998
2 61736  98.7004 136.2207 0001890  66.5775 293.5602 14.22772348144486
Epoch: 2026-09-21T05:20Z
TLE epoch observation values (Epoch: 2026-09-21T05:20:01.904Z)
Latitude
0.00004°
Longitude
56.10759°
Altitude
818.367 km
Speed
7.444 km/s
True Right ascension
09h 04m 52s
True Declination
0° 00' 00"
Sunlit
Object was in daylight at epoch
Visualization orbit readout
Latitude
Unknown
Longitude
Unknown
Altitude
Unknown
Speed
Unknown
Apparent Right ascension
Unknown
Apparent Declination
Unknown
Sunlit
N/A
Visualization observer readout
Local Sidereal Time
08:59:37
Azimuth
Unknown
Elevation
Unknown
Doppler factor
Unknown
Orbital elements
Apogee altitude
814.506 km
Perigee altitude
811.787 km
Semi-major axis
7,191.284 km
Eccentricity
0.00019
Inclination
98.7004°
RAAN
136.2207°
Arg. of periapsis
66.5775°
True anomaly
293.54035°
Mean anomaly
293.5602°
Eccentric anomaly
293.55027°
Mean motion
3.55905 °/min
Orbital period
101.15 mins
BSTAR
0.000032851
Loading maneuver chart data...
Computing Atmospheric mass density...
Loading historical data...
Loading historical data...
Loading historical data...
Loading historical data...
Loading historical data...
Loading historical data...
Loading historical data...

Documentation

Showing up to 5 results
|